Ubon Ratchathani, Thailand

2:52 PM +07 on July 25, 2017 (GMT +0700)
Ubon Ratchathani

Weather History for VTUU - November, 2013

Change the Weather History Date:

Wednesday, November 6, 2013

  Actual Average Record
Temperature  
Mean Temperature 80 °F -  
Max Temperature 91 °F 87 °F - ()
Min Temperature 70 °F 67 °F - ()
Cooling Degree Days 16    
Growing Degree Days 30 (Base 50)    
Moisture  
Dew Point 72 °F    
Average Humidity 72    
Maximum Humidity 94    
Minimum Humidity 49    
Precipitation  
Precipitation 0.00 in 0.03 in - ()
Sea Level Pressure  
Sea Level Pressure 29.85 in    
Wind  
Wind Speed 6 mph ()    
Max Wind Speed 17 mph    
Max Gust Speed -    
Visibility 5.9 miles    
Events      
T = Trace of Precipitation, MM = Missing Value Source: Averaged Metar Reports

Daily Weather History Graph

Daily Weather History Graph

Search for Another Location

Airport or City:

Trip Planner

Search our weather history database for the weather conditions in past years. The results will help you decide how hot, cold, wet, or windy it might be!

Date:

Astronomy

Nov. 06, 2013 Rise Set
Actual Time 5:58 AM +07 5:29 PM +07
Civil Twilight 5:36 AM +07 5:51 PM +07
Nautical Twilight 5:10 AM +07 6:17 PM +07
Astronomical Twilight 4:44 AM +07 6:43 PM +07
Moon 8:29 AM +07 (11/6) 8:11 PM +07 (11/6)
Length of Visible Light 12h 15m
Length of Day
11h 31m
Waxing Crescent, 10% of the Moon is Illuminated
Nov 6
Waxing Crescent
Nov 10
First Quarter
Nov 17
Full
Nov 26
Last Quarter
Dec 3
New

Hourly Weather History & Observations

Time (+07) Temp. Heat Index Dew Point Humidity Pressure Visibility Wind Dir Wind Speed Gust Speed Precip Events Conditions
1:00 AM 74 °F - 70 °F 84% 29.89 in 5 mi North 5.8 mph - -   Mist
2:00 AM 93.2 °F 100.5 °F 71.6 °F 49% 29.86 in 5.0 mi North 3.5 mph - N/A   Unknown
4:00 AM 73.4 °F - 71.6 °F 94% 29.86 in 5.0 mi North 3.5 mph - N/A   Unknown
5:00 AM 71.6 °F - 69.8 °F 94% 29.86 in 5.0 mi North 2.3 mph - N/A   Scattered Clouds
6:00 AM 73.4 °F - 69.8 °F 88% 29.86 in 5.0 mi NNE 2.3 mph - N/A   Scattered Clouds
6:30 AM 73.4 °F - 69.8 °F 88% 29.86 in 5.0 mi NNE 4.6 mph - N/A   Scattered Clouds
7:00 AM 74 °F - 71 °F 88% 29.89 in 6 mi NE 4.6 mph - -   Mist
7:00 AM 73.4 °F - 69.8 °F 88% 29.86 in 5.6 mi NE 4.6 mph - N/A   Scattered Clouds
8:00 AM 80.6 °F 85.4 °F 73.4 °F 79% 29.89 in 6.2 mi NE 13.8 mph - N/A   Mostly Cloudy
9:00 AM 82.4 °F 88.2 °F 73.4 °F 74% 29.89 in 6.2 mi NNE 9.2 mph - N/A   Mostly Cloudy
10:00 AM 84.2 °F 90.9 °F 73.4 °F 70% 29.89 in 6.2 mi North 5.8 mph - N/A   Mostly Cloudy
11:00 AM 87.8 °F 95.6 °F 73.4 °F 62% 29.89 in 6.2 mi NE 8.1 mph - N/A   Mostly Cloudy
12:00 PM 87.8 °F 95.6 °F 73.4 °F 62% 29.83 in 6.2 mi NE 11.5 mph - N/A   Mostly Cloudy
1:00 PM 89 °F - 73 °F 51% 29.83 in 6 mi North 10.4 mph - -   Partly Cloudy
1:00 PM 89.6 °F 98.2 °F 73.4 °F 59% 29.83 in 6.2 mi North 10.4 mph - N/A   Mostly Cloudy
2:00 PM 89.6 °F 98.2 °F 73.4 °F 59% 29.80 in 6.2 mi NNE 11.5 mph - N/A   Mostly Cloudy
3:00 PM 89.6 °F 96.2 °F 71.6 °F 55% 29.77 in 6.2 mi NNE 16.1 mph - N/A   Mostly Cloudy
4:00 PM 87.8 °F 95.6 °F 73.4 °F 62% 29.77 in 6.2 mi NE 10.4 mph - N/A   Mostly Cloudy
5:00 PM 86.0 °F 91.8 °F 71.6 °F 62% 29.80 in 6.2 mi NE 17.3 mph - N/A   Mostly Cloudy
5:30 PM 84.2 °F 89.6 °F 71.6 °F 66% 29.80 in 6.2 mi NNE 11.5 mph - N/A   Mostly Cloudy
6:00 PM 82.4 °F 86.3 °F 69.8 °F 66% 29.83 in 6.2 mi NNE 10.4 mph - N/A   Mostly Cloudy
7:00 PM 81 °F - 71 °F 65% 29.85 in 6 mi NNE 5.8 mph - -   Scattered Clouds
7:00 PM 80.6 °F 84.6 °F 71.6 °F 74% 29.83 in 6.2 mi NNE 5.8 mph - N/A   Mostly Cloudy
8:00 PM 80.6 °F 84.6 °F 71.6 °F 74% 29.86 in 6.2 mi NE 9.2 mph - N/A   Mostly Cloudy
9:00 PM 78.8 °F - 71.6 °F 78% 29.89 in 6.2 mi North 8.1 mph - N/A   Mostly Cloudy
10:00 PM 78.8 °F - 71.6 °F 78% 29.89 in 6.2 mi NNE 6.9 mph - N/A   Mostly Cloudy
11:00 PM 78.8 °F - 71.6 °F 78% 29.86 in 6.2 mi NNE 5.8 mph - N/A   Mostly Cloudy